QTR1364 FAOR-OTHH

Flight info

Callsign QTR1364
Flight time N/A
Altitude 37000
Route EGMEN1C EGMEN UQ2 EPSEK UM307 VBR UM310 DV UL437 VEDET B400 DAXAM Y414 DEDSO R401 DOLFI P558 SODEX DCT UMIBU P899 TOVOX
Aircraft A359/H-SDE2E3GHIJ1J3J4J5LM1ORWXY/LB1D1

Departure

Time 2026-05-04 07:20
Airport O.R. Tambo International Airport (FAOR)

Arrival

Time N/A
Airport Hamad International Airport (OTHH)
Time Latitude Longitude Altitude Speed Heading
2026-05-04 06:52 -26.13163 28.23325 5556 ft 0 kts 277°
2026-05-04 07:06 -26.13165 28.23343 5556 ft 4 kts 277°
2026-05-04 07:06 -26.13168 28.23367 5553 ft 4 kts 272°
2026-05-04 07:06 -26.13164 28.23395 5554 ft 4 kts 233°
2026-05-04 07:07 -26.13144 28.23414 5553 ft 4 kts 211°
2026-05-04 07:08 -26.13175 28.23409 5553 ft 0 kts 186°
2026-05-04 07:12 -26.13266 28.23398 5556 ft 6 kts 186°
2026-05-04 07:12 -26.13312 28.23393 5553 ft 7 kts 186°
2026-05-04 07:12 -26.13361 28.23387 5556 ft 8 kts 187°
2026-05-04 07:12 -26.13422 28.23376 5556 ft 9 kts 189°
2026-05-04 07:13 -26.13487 28.23367 5557 ft 10 kts 186°
2026-05-04 07:13 -26.13554 28.23359 5557 ft 10 kts 186°
2026-05-04 07:13 -26.13619 28.23352 5556 ft 10 kts 186°
2026-05-04 07:14 -26.13907 28.23301 5554 ft 12 kts 196°
2026-05-04 07:14 -26.14016 28.23266 5560 ft 20 kts 196°
2026-05-04 07:15 -26.14142 28.23226 5562 ft 19 kts 196°
2026-05-04 07:15 -26.14264 28.23201 5561 ft 16 kts 170°
2026-05-04 07:15 -26.14353 28.23227 5566 ft 12 kts 165°
2026-05-04 07:15 -26.14437 28.23252 5566 ft 12 kts 165°
2026-05-04 07:16 -26.14509 28.23274 5569 ft 9 kts 165°
2026-05-04 07:16 -26.14561 28.23290 5570 ft 7 kts 165°
2026-05-04 07:16 -26.14590 28.23312 5569 ft 5 kts 131°
2026-05-04 07:16 -26.14600 28.23338 5572 ft 6 kts 110°
2026-05-04 07:17 -26.14613 28.23380 5571 ft 6 kts 108°
2026-05-04 07:17 -26.14614 28.23430 5573 ft 6 kts 67°
2026-05-04 07:17 -26.14592 28.23450 5573 ft 5 kts 26°
2026-05-04 07:17 -26.14567 28.23459 5573 ft 0 kts 16°
2026-05-04 07:19 -26.14511 28.23477 5570 ft 33 kts 16°
2026-05-04 07:19 -26.14261 28.23555 5575 ft 79 kts 15°
2026-05-04 07:19 -26.13160 28.23893 5556 ft 163 kts 15°
2026-05-04 07:20 -26.12373 28.24127 5660 ft 188 kts 14°
2026-05-04 07:20 -26.11095 28.24489 6366 ft 189 kts 13°
2026-05-04 07:20 -26.09794 28.24867 7183 ft 193 kts 13°
2026-05-04 07:20 -26.08498 28.25288 8007 ft 194 kts 15°
2026-05-04 07:22 -26.00145 28.32167 10466 ft 297 kts 77°
2026-05-04 07:22 -25.99732 28.34474 10854 ft 312 kts 77°
2026-05-04 07:23 -25.99289 28.36898 11145 ft 329 kts 77°
2026-05-04 07:23 -25.98809 28.39446 11439 ft 345 kts 77°
2026-05-04 07:23 -25.98299 28.42098 11702 ft 359 kts 77°
2026-05-04 07:23 -25.97761 28.44867 12013 ft 373 kts 77°
2026-05-04 07:24 -25.97203 28.47730 12309 ft 384 kts 77°
2026-05-04 07:24 -25.96633 28.50650 12718 ft 390 kts 77°
2026-05-04 07:24 -25.96052 28.53610 13195 ft 394 kts 77°
2026-05-04 07:24 -25.95465 28.56600 13692 ft 397 kts 76°
2026-05-04 07:25 -25.94872 28.59614 14174 ft 401 kts 76°
2026-05-04 07:26 -25.84434 28.77324 17424 ft 412 kts 39°
2026-05-04 07:27 -25.82283 28.79430 17847 ft 414 kts 39°
2026-05-04 07:27 -25.80121 28.81554 18276 ft 417 kts 39°
2026-05-04 07:27 -25.77941 28.83697 18684 ft 420 kts 39°
2026-05-04 07:27 -25.75752 28.85850 19107 ft 422 kts 39°
2026-05-04 07:28 -25.73546 28.88021 19537 ft 425 kts 39°
2026-05-04 07:28 -25.71328 28.90202 19934 ft 428 kts 39°
2026-05-04 07:28 -25.69093 28.92400 20339 ft 431 kts 39°
2026-05-04 07:28 -25.66844 28.94610 20753 ft 433 kts 39°
2026-05-04 07:29 -25.64602 28.96867 21145 ft 437 kts 41°
2026-05-04 07:29 -25.62440 28.99251 21564 ft 441 kts 43°
2026-05-04 07:29 -25.60322 29.01725 21949 ft 444 kts 44°
2026-05-04 07:29 -25.58219 29.04246 22352 ft 447 kts 45°
2026-05-04 07:30 -25.56111 29.06791 22733 ft 450 kts 44°
2026-05-04 07:30 -25.53986 29.09348 23116 ft 452 kts 44°
2026-05-04 07:30 -25.51842 29.11912 23508 ft 455 kts 44°
2026-05-04 07:30 -25.49681 29.14481 23890 ft 458 kts 44°
2026-05-04 07:31 -25.47528 29.17030 24257 ft 460 kts 44°
2026-05-04 07:31 -25.45332 29.19625 24638 ft 464 kts 44°
2026-05-04 07:33 -25.29570 29.38379 27204 ft 487 kts 44°
2026-05-04 07:33 -25.27255 29.41129 27568 ft 490 kts 44°
2026-05-04 07:33 -25.24920 29.43902 27894 ft 494 kts 44°
2026-05-04 07:33 -25.22572 29.46686 28227 ft 497 kts 44°
2026-05-04 07:34 -25.20204 29.49494 28560 ft 500 kts 44°
2026-05-04 07:34 -25.17826 29.52311 28884 ft 503 kts 44°
2026-05-04 07:34 -25.15432 29.55147 29197 ft 506 kts 44°
2026-05-04 07:34 -25.13028 29.57993 29504 ft 509 kts 44°
2026-05-04 07:35 -25.10606 29.60857 29784 ft 512 kts 44°
2026-05-04 07:35 -25.08171 29.63737 30053 ft 515 kts 44°
2026-05-04 07:35 -25.05723 29.66627 30313 ft 517 kts 44°
2026-05-04 07:35 -25.03263 29.69532 30553 ft 520 kts 44°
2026-05-04 07:36 -25.00782 29.72460 30781 ft 523 kts 44°
2026-05-04 07:36 -24.98294 29.75393 31019 ft 525 kts 44°
2026-05-04 07:38 -24.80775 29.96019 33083 ft 528 kts 45°
2026-05-04 07:38 -24.78275 29.98979 33374 ft 528 kts 45°
2026-05-04 07:38 -24.75774 30.01943 33644 ft 529 kts 45°
2026-05-04 07:38 -24.73273 30.04905 33962 ft 528 kts 45°
2026-05-04 07:39 -24.70775 30.07867 34189 ft 529 kts 45°
2026-05-04 07:39 -24.68276 30.10831 34430 ft 529 kts 45°
2026-05-04 07:39 -24.65778 30.13791 34736 ft 528 kts 45°
2026-05-04 07:39 -24.63283 30.16743 35032 ft 527 kts 45°
2026-05-04 07:40 -24.60788 30.19692 35305 ft 526 kts 45°
2026-05-04 07:40 -24.58336 30.22608 35550 ft 526 kts 45°
2026-05-04 07:40 -24.55867 30.25568 35807 ft 525 kts 45°
2026-05-04 07:40 -24.53372 30.28567 36028 ft 525 kts 45°
2026-05-04 07:41 -24.50910 30.31527 36241 ft 525 kts 45°
2026-05-04 07:41 -24.48479 30.34444 36462 ft 524 kts 45°
2026-05-04 07:41 -24.46018 30.37394 36679 ft 524 kts 45°
2026-05-04 07:41 -24.43551 30.40346 36843 ft 524 kts 45°
2026-05-04 07:42 -24.41091 30.43287 37108 ft 523 kts 45°
2026-05-04 07:42 -24.38633 30.46223 37226 ft 522 kts 45°
2026-05-04 07:42 -24.33729 30.52076 37235 ft 520 kts 45°
2026-05-04 07:43 -24.28833 30.57909 37229 ft 520 kts 45°
2026-05-04 07:43 -24.23937 30.63735 37230 ft 520 kts 45°
2026-05-04 07:44 -24.19042 30.69554 37222 ft 520 kts 45°
2026-05-04 07:44 -24.14141 30.75374 37220 ft 520 kts 45°
2026-05-04 07:45 -24.09237 30.81188 37218 ft 520 kts 45°
2026-05-04 07:45 -24.04327 30.87004 37219 ft 520 kts 45°
2026-05-04 07:46 -23.99418 30.92812 37220 ft 520 kts 45°
2026-05-04 07:46 -23.94513 30.98608 37221 ft 519 kts 44°
2026-05-04 07:47 -23.89603 31.04403 37219 ft 519 kts 44°
2026-05-04 07:49 -23.69942 31.27538 37203 ft 519 kts 44°
2026-05-04 07:49 -23.65028 31.33302 37201 ft 519 kts 44°
2026-05-04 07:50 -23.60114 31.39060 37203 ft 519 kts 44°
2026-05-04 07:50 -23.55185 31.44829 37196 ft 519 kts 44°
2026-05-04 07:51 -23.50264 31.50582 37195 ft 519 kts 44°
2026-05-04 07:51 -23.45253 31.56228 37196 ft 516 kts 37°
2026-05-04 07:52 -23.39763 31.61240 37193 ft 515 kts 36°
2026-05-04 07:52 -23.34223 31.66094 37180 ft 515 kts 35°
2026-05-04 07:54 -23.11883 31.85563 37172 ft 514 kts 35°
2026-05-04 07:55 -23.06302 31.90425 37174 ft 514 kts 35°
2026-05-04 07:55 -23.00723 31.95279 37168 ft 514 kts 35°
2026-05-04 07:56 -22.95140 32.00136 37165 ft 514 kts 35°
2026-05-04 07:56 -22.89633 32.05086 37165 ft 515 kts 36°
2026-05-04 07:57 -22.84148 32.10080 37163 ft 514 kts 36°
2026-05-04 07:57 -22.78655 32.15054 37165 ft 514 kts 36°
2026-05-04 07:58 -22.73152 32.20011 37172 ft 514 kts 36°
2026-05-04 07:58 -22.67645 32.24959 37164 ft 514 kts 35°
2026-05-04 07:59 -22.62139 32.29902 37157 ft 514 kts 35°
2026-05-04 07:59 -22.56638 32.34835 37164 ft 514 kts 35°
2026-05-04 08:00 -22.51132 32.39769 37163 ft 514 kts 35°
2026-05-04 08:02 -22.29095 32.59461 37169 ft 514 kts 35°
2026-05-04 08:02 -22.23577 32.64379 37163 ft 514 kts 35°
2026-05-04 08:03 -22.18099 32.69255 37163 ft 514 kts 35°
2026-05-04 08:03 -22.12581 32.74164 37154 ft 514 kts 35°
2026-05-04 08:04 -22.07061 32.79068 37154 ft 514 kts 35°
2026-05-04 08:04 -22.01554 32.83977 37156 ft 514 kts 36°
2026-05-04 08:05 -21.96088 32.88944 37173 ft 514 kts 36°
2026-05-04 08:05 -21.90631 32.93915 37172 ft 513 kts 36°
2026-05-04 08:06 -21.85176 32.98867 37173 ft 513 kts 36°
2026-05-04 08:06 -21.80644 33.02970 37181 ft 512 kts 36°
2026-05-04 08:08 -21.58724 33.22486 37146 ft 511 kts 35°
2026-05-04 08:11 -21.34023 33.44340 37147 ft 511 kts 35°
2026-05-04 08:11 -21.25787 33.51606 37148 ft 511 kts 35°
2026-05-04 08:12 -21.20300 33.56440 37147 ft 511 kts 35°
2026-05-04 08:12 -21.14807 33.61274 37146 ft 511 kts 35°
2026-05-04 08:13 -21.09320 33.66099 37172 ft 510 kts 35°
2026-05-04 08:13 -21.03837 33.70915 37173 ft 510 kts 35°
2026-05-04 08:14 -20.98391 33.75693 37167 ft 509 kts 35°
2026-05-04 08:16 -20.76505 33.94853 37164 ft 508 kts 35°
2026-05-04 08:16 -20.71035 33.99629 37163 ft 507 kts 35°
2026-05-04 08:17 -20.65680 34.04551 37168 ft 509 kts 38°
2026-05-04 08:17 -20.60452 34.09636 37165 ft 508 kts 38°
2026-05-04 08:19 -20.39416 34.29753 37157 ft 507 kts 38°
2026-05-04 08:20 -20.34147 34.34754 37157 ft 507 kts 38°
2026-05-04 08:20 -20.28879 34.39751 37156 ft 507 kts 38°
2026-05-04 08:21 -20.23611 34.44744 37146 ft 507 kts 38°
2026-05-04 08:21 -20.18341 34.49734 37147 ft 507 kts 38°
2026-05-04 08:22 -20.13072 34.54719 37147 ft 507 kts 38°
2026-05-04 08:24 -19.91968 34.74636 37129 ft 506 kts 38°
2026-05-04 08:24 -19.86704 34.79593 37128 ft 505 kts 38°
2026-05-04 08:25 -19.81455 34.84469 37126 ft 504 kts 34°
2026-05-04 08:25 -19.75479 34.88170 37130 ft 494 kts 17°
2026-05-04 08:27 -19.49523 34.97518 37138 ft 493 kts 15°
2026-05-04 08:28 -19.43021 34.99831 37137 ft 493 kts 15°
2026-05-04 08:28 -19.36523 35.02144 37138 ft 493 kts 15°
2026-05-04 08:29 -19.30023 35.04454 37142 ft 493 kts 15°
2026-05-04 08:31 -19.04033 35.13670 37127 ft 492 kts 15°
2026-05-04 08:33 -18.78041 35.22854 37127 ft 492 kts 15°
2026-05-04 08:35 -18.52090 35.32005 37136 ft 492 kts 15°
2026-05-04 08:35 -18.45599 35.34289 37146 ft 492 kts 15°
2026-05-04 08:37 -18.22900 35.42269 37147 ft 491 kts 16°
2026-05-04 08:38 -18.16420 35.44544 37147 ft 491 kts 16°
2026-05-04 08:38 -18.09972 35.46805 37146 ft 491 kts 16°
2026-05-04 08:40 -17.84045 35.55882 37146 ft 491 kts 16°
2026-05-04 08:41 -17.77564 35.58146 37147 ft 491 kts 16°
2026-05-04 08:41 -17.71089 35.60407 37149 ft 491 kts 16°
2026-05-04 08:42 -17.64612 35.62667 37154 ft 491 kts 16°
2026-05-04 08:42 -17.58133 35.64925 37154 ft 491 kts 16°
2026-05-04 08:43 -17.51653 35.67183 37155 ft 491 kts 16°
2026-05-04 08:43 -17.45173 35.69438 37156 ft 490 kts 16°
2026-05-04 08:44 -17.38696 35.71686 37155 ft 490 kts 16°
2026-05-04 08:46 -17.12800 35.80666 37165 ft 490 kts 16°
2026-05-04 08:46 -17.06326 35.82907 37164 ft 490 kts 16°
2026-05-04 08:47 -16.99850 35.85147 37164 ft 490 kts 16°
2026-05-04 08:47 -16.93430 35.87366 37167 ft 490 kts 17°
2026-05-04 08:48 -16.86955 35.89602 37173 ft 490 kts 17°
2026-05-04 08:48 -16.80484 35.91836 37180 ft 490 kts 17°
2026-05-04 08:49 -16.74017 35.94067 37176 ft 490 kts 17°
2026-05-04 08:50 -16.51374 36.01863 37177 ft 490 kts 17°
2026-05-04 08:51 -16.44903 36.04088 37182 ft 490 kts 17°
2026-05-04 08:51 -16.38428 36.06313 37192 ft 490 kts 17°
2026-05-04 08:52 -16.31952 36.08536 37192 ft 490 kts 17°
2026-05-04 08:52 -16.25479 36.10757 37194 ft 490 kts 17°
2026-05-04 08:54 -16.00680 36.19251 37194 ft 490 kts 17°
2026-05-04 08:55 -15.94207 36.21457 37191 ft 490 kts 17°
2026-05-04 08:55 -15.87721 36.23623 37199 ft 490 kts 17°
2026-05-04 09:01 -15.19638 36.46324 37229 ft 490 kts 17°
2026-05-04 09:01 -15.13143 36.48483 37227 ft 490 kts 17°
2026-05-04 09:02 -15.06648 36.50640 37227 ft 490 kts 17°
2026-05-04 09:02 -15.00149 36.52798 37229 ft 490 kts 17°
2026-05-04 09:03 -14.93660 36.54951 37234 ft 490 kts 17°
2026-05-04 09:03 -14.87156 36.57107 37238 ft 490 kts 17°
2026-05-04 09:04 -14.80657 36.59261 37238 ft 490 kts 17°
2026-05-04 09:04 -14.74162 36.61411 37237 ft 490 kts 17°
2026-05-04 09:05 -14.67662 36.63562 37242 ft 490 kts 17°
2026-05-04 09:05 -14.61163 36.65712 37238 ft 491 kts 17°
2026-05-04 09:06 -14.54661 36.67861 37239 ft 491 kts 17°
2026-05-04 09:08 -14.28645 36.76446 37236 ft 491 kts 17°
2026-05-04 09:08 -14.22142 36.78589 37236 ft 491 kts 17°
2026-05-04 09:09 -14.15637 36.80731 37237 ft 491 kts 17°
2026-05-04 09:09 -14.09134 36.82871 37243 ft 490 kts 17°
2026-05-04 09:10 -14.02675 36.84995 37238 ft 490 kts 17°
2026-05-04 09:10 -13.96182 36.87150 37242 ft 490 kts 18°
2026-05-04 09:11 -13.89701 36.89329 37238 ft 490 kts 18°
2026-05-04 09:11 -13.83220 36.91505 37237 ft 490 kts 18°
2026-05-04 09:12 -13.76738 36.93675 37235 ft 490 kts 18°
2026-05-04 09:14 -13.50827 37.02327 37237 ft 489 kts 18°
2026-05-04 09:14 -13.44349 37.04488 37244 ft 489 kts 18°
2026-05-04 09:15 -13.37870 37.06647 37239 ft 489 kts 18°
2026-05-04 09:15 -13.31392 37.08805 37240 ft 490 kts 18°
2026-05-04 09:17 -13.02254 37.18496 37241 ft 489 kts 18°
2026-05-04 09:18 -12.95776 37.20647 37245 ft 489 kts 18°
2026-05-04 09:18 -12.89303 37.22796 37248 ft 489 kts 18°
2026-05-04 09:19 -12.82832 37.24942 37248 ft 489 kts 18°
2026-05-04 09:19 -12.76415 37.27111 37248 ft 489 kts 19°
2026-05-04 09:20 -12.69971 37.29338 37245 ft 489 kts 19°
2026-05-04 09:20 -12.63521 37.31564 37239 ft 489 kts 19°
2026-05-04 09:21 -12.57069 37.33782 37238 ft 489 kts 19°
2026-05-04 09:21 -12.50617 37.35994 37227 ft 489 kts 19°
2026-05-04 09:22 -12.44164 37.38206 37218 ft 489 kts 19°
2026-05-04 09:22 -12.37709 37.40417 37211 ft 489 kts 19°
2026-05-04 09:23 -12.31257 37.42625 37212 ft 489 kts 19°
2026-05-04 09:23 -12.24804 37.44834 37210 ft 489 kts 19°
2026-05-04 09:25 -11.98978 37.53661 37202 ft 489 kts 19°
2026-05-04 09:26 -11.92521 37.55865 37200 ft 489 kts 19°
2026-05-04 09:26 -11.86076 37.58064 37202 ft 489 kts 19°
2026-05-04 09:27 -11.79608 37.60269 37200 ft 489 kts 19°
2026-05-04 09:27 -11.73148 37.62471 37195 ft 489 kts 19°
2026-05-04 09:28 -11.66692 37.64670 37196 ft 489 kts 19°
2026-05-04 09:28 -11.60236 37.66862 37194 ft 489 kts 19°
2026-05-04 09:29 -11.53763 37.68982 37194 ft 489 kts 18°
2026-05-04 09:29 -11.47277 37.71088 37184 ft 489 kts 18°
2026-05-04 09:30 -11.40799 37.73201 37182 ft 489 kts 18°
2026-05-04 09:30 -11.34325 37.75320 37177 ft 489 kts 18°
2026-05-04 09:31 -11.27852 37.77440 37179 ft 488 kts 18°
2026-05-04 09:31 -11.21426 37.79543 37180 ft 488 kts 18°
2026-05-04 09:32 -11.14957 37.81659 37178 ft 488 kts 18°
2026-05-04 09:34 -10.89127 37.90097 37171 ft 487 kts 19°
2026-05-04 09:34 -10.82679 37.92201 37157 ft 487 kts 19°
2026-05-04 09:35 -10.76226 37.94306 37146 ft 486 kts 19°
2026-05-04 09:35 -10.69779 37.96407 37148 ft 486 kts 19°
2026-05-04 09:37 -10.44051 38.04786 37138 ft 484 kts 19°
2026-05-04 09:38 -10.37636 38.06873 37135 ft 484 kts 19°
2026-05-04 09:38 -10.31211 38.08962 37136 ft 484 kts 19°
2026-05-04 09:39 -10.24790 38.11050 37136 ft 486 kts 19°
2026-05-04 09:39 -10.18297 38.13160 37128 ft 494 kts 19°
2026-05-04 09:40 -10.11732 38.15292 37128 ft 496 kts 19°
2026-05-04 09:40 -10.05203 38.17410 37128 ft 496 kts 19°
2026-05-04 09:42 -9.79994 38.25585 37117 ft 496 kts 19°
2026-05-04 09:43 -9.73473 38.27697 37121 ft 495 kts 19°
2026-05-04 09:43 -9.66900 38.29825 37121 ft 496 kts 19°
2026-05-04 09:44 -9.60333 38.31951 37119 ft 496 kts 19°
2026-05-04 09:46 -9.34065 38.40445 37110 ft 495 kts 19°
2026-05-04 09:46 -9.27493 38.42567 37106 ft 495 kts 19°
2026-05-04 09:47 -9.20923 38.44689 37114 ft 495 kts 19°
2026-05-04 09:49 -8.94654 38.53163 37100 ft 495 kts 19°
2026-05-04 09:51 -8.71665 38.60569 37102 ft 495 kts 19°
2026-05-04 09:51 -8.65095 38.62683 37101 ft 495 kts 18°
2026-05-04 09:52 -8.58532 38.64795 37090 ft 495 kts 19°
2026-05-04 09:52 -8.51958 38.66909 37101 ft 496 kts 19°
2026-05-04 09:53 -8.45432 38.69009 37090 ft 495 kts 19°
2026-05-04 09:53 -8.38861 38.71125 37081 ft 496 kts 19°
2026-05-04 09:54 -8.32290 38.73241 37081 ft 496 kts 19°
2026-05-04 09:54 -8.25723 38.75355 37082 ft 496 kts 19°
2026-05-04 09:55 -8.19152 38.77470 37073 ft 496 kts 19°
2026-05-04 09:55 -8.12580 38.79583 37072 ft 496 kts 19°
2026-05-04 09:56 -8.06012 38.81695 37066 ft 496 kts 19°
2026-05-04 09:56 -7.99439 38.83808 37066 ft 496 kts 19°
2026-05-04 09:57 -7.92869 38.85919 37064 ft 496 kts 19°
2026-05-04 09:57 -7.86296 38.88030 37051 ft 496 kts 19°
2026-05-04 09:58 -7.79726 38.90140 37053 ft 496 kts 19°
2026-05-04 09:58 -7.73152 38.92251 37043 ft 496 kts 19°
2026-05-04 10:00 -7.46865 39.00682 37033 ft 496 kts 19°
2026-05-04 10:04 -7.00877 39.15407 37020 ft 495 kts 19°
2026-05-04 10:04 -6.94308 39.17507 37017 ft 495 kts 19°
2026-05-04 10:05 -6.87936 39.20064 37017 ft 492 kts 31°
2026-05-04 10:05 -6.82185 39.23710 37018 ft 491 kts 35°
2026-05-04 10:06 -6.76535 39.27572 37017 ft 491 kts 36°
2026-05-04 10:06 -6.70900 39.31459 37018 ft 491 kts 36°
2026-05-04 10:08 -6.51120 39.44964 37017 ft 491 kts 36°
2026-05-04 10:08 -6.45471 39.48811 37017 ft 490 kts 36°
2026-05-04 10:09 -6.39820 39.52660 37017 ft 490 kts 36°
2026-05-04 10:09 -6.34170 39.56508 37017 ft 490 kts 36°
2026-05-04 10:10 -6.28523 39.60351 37017 ft 490 kts 36°
2026-05-04 10:10 -6.22874 39.64191 37017 ft 490 kts 36°
2026-05-04 10:11 -6.17199 39.67995 37017 ft 490 kts 35°
2026-05-04 10:11 -6.11517 39.71789 37017 ft 490 kts 36°
2026-05-04 10:12 -6.05841 39.75587 37017 ft 490 kts 36°
2026-05-04 10:12 -6.00172 39.79385 37017 ft 490 kts 36°
2026-05-04 10:13 -5.94499 39.83186 37017 ft 490 kts 36°
2026-05-04 10:13 -5.88831 39.86983 37017 ft 490 kts 36°
2026-05-04 10:14 -5.83159 39.90781 37017 ft 490 kts 36°
2026-05-04 10:16 -5.60460 40.05970 37017 ft 490 kts 36°
2026-05-04 10:16 -5.54788 40.09763 37020 ft 490 kts 36°
2026-05-04 10:17 -5.49114 40.13557 37008 ft 490 kts 36°
2026-05-04 10:19 -5.26433 40.28713 37008 ft 491 kts 36°
2026-05-04 10:19 -5.20747 40.32511 37008 ft 491 kts 36°
2026-05-04 10:20 -5.15073 40.36299 37008 ft 491 kts 36°
2026-05-04 10:20 -5.09411 40.40149 37000 ft 490 kts 38°
2026-05-04 10:21 -5.04056 40.44364 36999 ft 489 kts 41°
2026-05-04 10:21 -4.98774 40.48671 36999 ft 489 kts 41°
2026-05-04 10:22 -4.90772 40.55048 36999 ft 490 kts 40°
2026-05-04 10:23 -4.85413 40.59261 36999 ft 490 kts 40°
2026-05-04 10:25 -4.62296 40.73963 36999 ft 493 kts 33°
2026-05-04 10:25 -4.56434 40.77536 36999 ft 493 kts 33°
2026-05-04 10:26 -4.50572 40.81112 36999 ft 493 kts 33°
2026-05-04 10:26 -4.44715 40.84687 36999 ft 493 kts 33°
2026-05-04 10:27 -4.38854 40.88263 36999 ft 493 kts 33°
2026-05-04 10:27 -4.32990 40.91839 36999 ft 493 kts 33°
2026-05-04 10:28 -4.27172 40.95388 36999 ft 493 kts 33°